Location: Molino di Ancona
(43.6167°N, 13.3667°E)
Time: 19:35:16
(UTC+00:00)

Cosmos 1833 Rocket - Pass Details

Date: 15 December 2019
Orbit: 831 x 841 km, 71.0° (Epoch: 19 January)

Event Time Altitude Azimuth Distance (km) Brightness Sun altitude
Exits shadow 05:35:32 - 339° (NNW) 3,330 5.4 -10.0°
Reaches altitude 10° 05:37:54 10° 345° (NNW) 2,464 4.8 -9.6°
Maximum altitude 05:43:20 47° 59° (ENE) 1,107 3.6 -8.7°
Drops below altitude 10° 05:48:45 10° 133° (SE) 2,453 6.5 -7.8°
Sets 05:51:17 0° 139° (SE) 3,384 7.2 -7.4°
